www.pogodaiklimat.ru

Погода и климат >> Архив погоды >> Россия >> Башкирия >> Акъяр


ПОГОДА в Акъяре

  • Прогноз погоды в Акъяре
  • Монитор погоды в Акъяре

АРХИВ ПОГОДЫ в Акъяре

Время (UTC), дата Ветер
(напр.,м/с)
 
Видим.   Явления Облачность Т
(С)
Тd
(С)
f
(%)
Тe
(С)
Тes
(С)
Комфортность P
(гПа)
Po
(гПа)
Тmin
(С)
Tmax
(С)
R
(мм)
R24
(мм)
S
(см)
18 14.07 С 2 20 км {метель} 8/5 600 м
[Cb cap Ac trans]
+25.0 +15.1 54 +28 +28 жарко 1001.7 963.7
21 14.07 В 4 20 км 9/9 600 м
[Cb cap]
+22.5 +10.3 46 +24 +24 комфорт 999.6 961.3
00 15.07 В 9-15
{15}
50 км слаб. ливневой дождь 10/10 600 м
[Cb cap]
+26.5 +3.0 22 +25 +25 комфорт 996.0 958.2
03 15.07 Ю 7-12
{15}
50 км {ливн. осадки} 9/3 600 м
[Sc Cc]
+27.4 +2.4 20 +26 +26 жарко 994.3 956.7 +22.0 0.0
06 15.07 З 6-11
{16}
20 км {ливн. осадки, метель} 9/8 600 м
[Cb cap Cs]
+23.0 +14.0 57 +26 +27 жарко 998.9 960.7
09 15.07 ЮЗ 9-15
{15}
50 км пыльный позёмок 9/8 600 м
[Cb cap Cs]
+23.2 +11.5 48 +26 +26 жарко 1000.5 962.2
12 15.07 З 8-13
{15}
50 км пыльный позёмок 8/6 600 м
[Cb cap Cs]
+20.9 +10.0 50 +22 +23 комфорт 1003.7 965.0
15 15.07 З 8-13
{15}
50 км пыльный позёмок 3/3 600 м
[Sc diur, vesp]
+19.8 +8.1 47 +20 +20 1005.6 966.7 +27.4
18 15.07 З 6-11
{13}
20 км {метель} 3/3 600 м
[Sc diur, vesp Ci fib]
+16.5 +8.7 60 +15 +15 1007.7 968.3
21 15.07 СЗ 2
{11}
20 км ясно +13.5 +8.6 72 +13 +13 1009.2 969.3
00 16.07 З 2 50 км 3/0
[Ci fib]
+12.6 +8.1 74 +12 +12 1010.7 970.6
03 16.07 З 5 50 км ясно +17.6 +9.7 60 +17 +19 1011.5 972.1 +12.3
06 16.07 З 6
{12}
50 км {метель} 3/3 600 м
[Cu hum]
+23.1 +6.0 33 +24 +27 комфорт 1010.7 972.0
09 16.07 З 6
{12}
50 км {метель} 3/1 1000 м
[Cu hum Ci fib]
+26.3 +4.7 25 +25 +31 комфорт 1010.4 972.1
12 16.07 СЗ 3
{12}
50 км {метель} 8/0
[Ac trans Ci fib]
+27.3 +6.1 26 +27 +32 жарко 1010.2 972.0
15 16.07 СЗ 3 50 км 9/0
[Ac lent Ci fib]
+25.6 +5.8 28 +25 +25 комфорт 1011.2 972.8 +27.4
18 16.07 С 3 20 км 6/0
[Cc]
+19.3 +7.7 47 +20 +20 1013.0 973.7
21 16.07 СЗ 2 20 км 3/0
[Ci fib]
+14.6 +7.4 62 +14 +14 1014.4 974.4
00 17.07 СЗ 2 50 км 8/4 600 м
[Sc Ac trans Ci fib]
+13.2 +7.4 68 +13 +13 1015.3 975.1
03 17.07 В 3 50 км 9/3 600 м
[Sc Ac trans Cc]
+19.5 +8.8 50 +21 +22 комфорт 1014.6 975.3 +12.8
06 17.07 В 3 50 км 9/4 600 м
[Sc Ac trans Cc]
+24.1 +7.7 35 +24 +28 комфорт 1013.5 974.5
09 17.07 Ю 2
{11}
50 км 6/3 600 м
[Cu hum Ac lent Cc]
+29.7 +4.4 20 +28 +37 жарко 1011.4 973.5
12 17.07 ЮЗ 3 50 км 8/3 600 м
[Cu hum Ac lent Cc]
+32.2 +1.3 14 +29 +32 жарко 1009.6 972.0
15 17.07 В 2 50 км 9/9 600 м
[Cb cap Ci fib]
+29.0 +4.5 21 +27 +27 жарко 1009.6 971.6 +32.2
18 17.07 С 4
{14}
20 км {метель} 9/8 600 м
[Cb cap Ac trans Ci fib]
+22.6 +10.4 46 +24 +24 комфорт 1010.7 972.0
21 17.07 СВ 4 20 км 8/0
[Ac trans Ci fib]
+22.0 +10.2 47 +24 +24 комфорт 1010.6 971.8
00 18.07 СВ 3 50 км 4/3 600 м
[Sc Ac trans Ci fib]
+17.3 +10.2 63 +17 +17 1011.5 972.0
03 18.07 В 3 50 км 8/1 1000 м
[Sc Ac trans]
+21.3 +6.8 39 +22 +24 комфорт 1010.7 971.8 +16.7
06 18.07 Ю 4 50 км 9/4 600 м
[Cu Sc Ac trans Ci]
+30.1 +3.2 18 +28 +31 жарко 1009.0 971.2
09 18.07 ЮЗ 5
{12}
50 км 9/6 600 м
[Cb cap Ac trans Cc]
+33.9 +0.5 12 +31 +33 жарко 1007.0 969.7
12 18.07 ЮЗ 5
{12}
50 км {метель} 9/9 600 м
[Cb cap]
+34.2 +0.7 12 +31 +31 жарко 1006.3 969.1
15 18.07 С 3 50 км 9/5 600 м
[Cb cap Ac trans Cs]
+29.1 +7.0 25 +28 +28 жарко 1007.1 969.3 +36.3
18 18.07 СВ 3 20 км 5/4 600 м
[Cb cap Ci fib]
+24.7 +6.5 31 +25 +25 комфорт 1007.9 969.5
21 18.07 штиль 0 20 км 6/3 1000 м
[Sc Ac trans Ci fib]
+19.7 +7.7 46 +20 +20 1008.6 969.5
00 19.07 З 2 20 км 8/4 600 м
[Sc Ac trans Cs]
+17.2 +8.1 55 +18 +18 1009.6 970.2
03 19.07 Ю 1 20 км гроза без осадков 9/6 600 м
[Cb cap Ac trans Ci sp]
+23.6 +7.6 36 +24 +25 комфорт 1009.4 970.8 +16.7
06 19.07 Ю 2 50 км {гроза} 9/8 600 м
[Cb cap Cc]
+31.1 +4.8 19 +29 +31 жарко 1008.2 970.6
09 19.07 ЮВ 4 50 км 9/8 600 м
[Cb cap Ac trans Ci fib]
+36.1 +3.4 13 +33 +35 жарко 1006.4 969.4
12 19.07 штиль 0
{11}
50 км слаб. ливневой дождь 10/10 600 м
[Cb cap]
+30.3 +8.0 25 +29 +29 жарко 1008.2 970.5
15 19.07 В 3 50 км {ливн. осадки} 9/9 600 м
[Cb cap]
+29.0 +7.5 26 +28 +28 жарко 1007.0 969.2 +36.2 0.0
18 19.07 В 5 20 км зарница {ливн. осадки} 9/9 600 м
[Cb cap]
+26.2 +7.3 30 +26 +26 жарко 1006.5 968.3
21 19.07 С 5 20 км в посл. час ливневой дождь 9/9 600 м
[Cb cap]
+25.4 +7.9 33 +26 +26 жарко 1007.5 969.2
00 20.07 СВ 7-13
{14}
50 км пыльный позёмок {ливн. осадки} 8/5 600 м
[Cb cap Cc]
+23.7 +10.4 43 +25 +25 комфорт 1006.0 967.6
03 20.07 СВ 8-14
{17}
50 км пыльный позёмок 6/3 600 м
[Sc Cc]
+25.3 +10.7 40 +26 +27 жарко 1005.6 967.4 +23.2 0.0
06 20.07 В 8-13
{16}
50 км пыльный позёмок 6/1 1000 м
[Sc Ac trans Cc]
+32.0 +3.1 16 +29 +31 жарко 1003.6 966.2
09 20.07 В 4
{15}
50 км {метель} 4/0
[Ci fib]
+35.5 +2.9 13 +32 +42 жарко 1001.7 964.8
12 20.07 В 2 50 км {метель} 9/0
[Cs]
+37.0 +5.1 14 +34 +40 очень
жарко
1000.0 963.4
15 20.07 С 8-14
{15}
10 км дым {метель} 5/0
[Cs]
+30.0 +10.6 30 +30 +30 жарко 1002.1 964.6 +37.7
18 20.07 СЗ 7-11
{15}
20 км {метель, туман} 9/4 600 м
[Cb cap Ac trans Cs]
+26.3 +12.4 42 +28 +28 жарко 1003.7 965.7
21 20.07 СЗ 5
{13}
20 км 1/0
[Ci fib]
+22.8 +13.0 54 +26 +26 жарко 1004.1 965.7
00 21.07 СЗ 7-11
{14}
20 км пыльный позёмок 4/1 600 м
[Sc Cc]
+21.2 +14.4 65 +24 +24 комфорт 1006.5 967.8
03 21.07 СЗ 7-10
{14}
50 км {метель} 3/3 600 м
[Sc]
+23.1 +11.8 49 +26 +26 жарко 1008.4 969.8 +20.8
06 21.07 СЗ 5-10
{12}
50 км {метель} 1/1 600 м
[Cu hum]
+27.1 +9.0 32 +27 +33 жарко 1008.9 970.8
09 21.07 С 5-10
{14}
50 км {метель} 8/8 600 м
[Cu med, cong]
+29.5 +6.8 24 +28 +30 жарко 1009.0 971.1
12 21.07 СЗ 7-12
{13}
50 км {метель} 5/4 600 м
[Cu med, cong Ci fib]
+29.0 +5.8 23 +28 +29 жарко 1009.8 971.8
15 21.07 СЗ 6-10
{12}
50 км 3/3 600 м
[Sc diur, vesp Ci fib]
+26.3 +5.3 26 +26 +26 жарко 1010.9 972.6 +29.7

 

Местоположение метеостанции Акъяр (Башкирия, Россия): широта 51.87 долгота 58.18 высота над уровнем моря 341 м.

В архиве по умолчанию представлена погода в Акъяре за последнюю неделю. Архивные данные за месяц целиком и за предыдущие месяцы, начиная с января 2011 года, Вы можете получить, выбрав интересующий диапазон дат из раскрывающегося списка и нажав кнопку "Ввод!".


*Определитесь, кто Вы:
робот инопланетянин человек

Внимание! Время в таблицах - всемирное. Для получения местного времени необходимо прибавить поправку, которая равна 5 ч.

Смотрите также архив погоды в соседних городах и на ближайших метеорологических станциях:

Погода в Энергетике (Оренбургская область, Россия) (46 км)
Погода в Зилаире (Башкирия, Россия) (66 км)
Погода в Кувандыке (Оренбургская область, Россия) (71 км)
Погода в Орске (Оренбургская область, Россия) (94 км)
Погода в Кизильском (Челябинская область, Россия) (106 км)
Погода в Айдырля (Оренбургская область, Россия) (117 км)
Погода в Кос-Истеке (Актюбинская область, Казахстан) (128 км)
Погода в Беляевке (Оренбургская область, Россия) (131 км)
Погода в Степном (Актюбинская область, Казахстан) (133 км)
Погода в Троицком Т (Оренбургская область, Россия) (134 км)

Пояснения к столбцам:

Ветер - указаны скорость ветра в м/с - средняя за 10 мин, порывы в срок и между сроками (в фигурных скобках) и направление, откуда дует ветер: С - северный, СВ - северо-восточный, В - восточный, ЮВ - юго-восточный, Ю - южный, ЮЗ - юго-западный, З - западный, СЗ - северо-западный.
Видимость - горизонтальная дальность видимости в метрах или километрах. При видимости от 1 до 10 км при отсутствии осадков обычно наблюдается дымка, при ухудшении видимости до 1 км и менее - туман. В сухую погоду видимость может ухудшаться дымом, пылью или мглою.
Явления - указаны атмосферные явления, наблюдавшиеся в срок или в последний час перед сроком; фигурными скобками обозначены явления, наблюдавшиеся между сроками (за 1-3 часа до срока); квадратными скобками обозначены град или гололедные отложения с указанием их диаметра в мм.
Облачность - указаны через наклонную черту общая и нижняя облачность в баллах и высота нижней границы облаков в метрах; квадратными скобками обозначены формы облаков: Ci - перистые, Cs - перисто-слоистые, Cc - перисто-кучевые, Ac - высококучевые, As - высокослоистые, Sc - слоисто-кучевые, Ns - слоисто-дождевые, Cu - кучевые, Cb - кучево-дождевые. Подробнее классификацию облаков см. в Атласе облаков (PDF).
T - Температура воздуха - температура, измеренная на высоте 2 м над землей.
Td - Температура точки росы - температура, при понижении до которой содержащийся в воздухе водяной пар достигнет насыщения.
f - Относительная влажность воздуха - влажноcть воздуха, измеренная на высоте 2 м над землей.
Te - Эффективная температура - температура, которую ощущает одетый по сезону человек в тени. Характеристика душности погоды. При расчете учитывается влияние влажности воздуха и скорости ветра на теплоощущения человека.
Tes - Эффективная температура на солнце - температура, которую ощущает человек, с поправкой на солнечный нагрев. Характеристика знойности погоды. Зависит от высоты солнца над горизонтом, облачности и скорости ветра. Ночью, в пасмурную погоду, а также при ветре 12 м/с и более поправка равна нулю.
P - Атмосферное давление - приведенное к уровню моря атмосферное давление.
Po - Атмосферное давление - измеренное на уровне метеостанции атмосферное давление.
Tmin - Минимальная температура - минимум температуры воздуха на высоте 2 м над землей.
Tmax - Максимальная температура - максимум температуры воздуха на высоте 2 м над землей.
R - Количество осадков - Количество выпавших осадков за период времени, мм. При наведении курсора мыши на число - период времени, за который выпало указанное количество осадков.
R24 - Количество осадков - Количество выпавших осадков за 24 часа, мм.
S - Снежный покров - Высота снежного покрова, см. При наведении курсора мыши на число - состояние снежного покрова и степень покрытия местности в баллах.